Regional Weather Roundup
Issued by NWS

Home | Current Version | Previous Version | Text Only | Print | Product List | Glossary Off
Versions: 1 2 3 4 5 6 7 8 9 10 11 12 13 14 15 16 17 18 19 20 21 22 23 24 25 26 27 28 29 30 31 32 33 34 35 36 37 38 39 40 41 42 43 44 45 46 47 48 49 50

000
ASUS43 KBIS 250810
RWRND

NORTH DAKOTA REGIONAL WEATHER ROUNDUP
NATIONAL WEATHER SERVICE BISMARCK ND
300 AM CDT TUE APR 25 2017

NOTE: "FAIR" INDICATES FEW OR NO CLOUDS BELOW 12,000 FEET WITH NO
SIGNIFICANT WEATHER AND/OR OBSTRUCTIONS TO VISIBILITY.


NDZ001>003-009>011-017-250900-
NORTHWEST NORTH DAKOTA

CITY           SKY/WX    TMP DP  RH WIND       PRES   REMARKS
WILLISTON      CLOUDY    31  24  75 NE10      29.86R
MINOT          CLOUDY    31  26  82 N10       29.81F
MINOT AFB      CLOUDY    30  26  84 NE14      29.82S WCI  19
$$

NDZ018>021-031>035-040>046-250900-
SOUTHWEST NORTH DAKOTA

CITY           SKY/WX    TMP DP  RH WIND       PRES   REMARKS
BISMARCK       CLOUDY    33  29  85 NE15G22   29.76S
DICKINSON      CLOUDY    28  26  92 NE12      29.74R WCI  18
GARRISON         N/A     30  25  81 NE10      29.79R
HETTINGER ARPT CLOUDY    30  28  92 NE12      29.74R FOG
$$

NDZ004>008-012>016-024-026-027-054-250900-
NORTHEAST NORTH DAKOTA

CITY           SKY/WX    TMP DP  RH WIND       PRES   REMARKS
GRAND FORKS    CLOUDY    33  30  88 N18G26    29.71S
GRND FRKS AFB  CLOUDY    30  29  95 N17G28    29.72F WCI  19
DEVILS LAKE    CLOUDY    29  26  89 N22       29.76F WCI  15
$$

NDZ022-023-025-028>030-036>039-047>053-250900-
SOUTHEAST NORTH DAKOTA

CITY           SKY/WX    TMP DP  RH WIND       PRES   REMARKS
FARGO          CLOUDY    34  32  92 N25G31    29.65R
JAMESTOWN      CLOUDY    31  30  96 N17       29.70S WCI  19
$$





USA.gov is the U.S. government's official web portal to all federal, state and local government web resources and services.